Total_Precipitation_Accumulation
1.14 1.17 1.23 1.22 1.27 1.39 1.49 1.52 1.50 1.45 1.47 1.44 1.15 0.97 0.86 0.87 0.93 0.94 0.96 0.74 0.44 0.32 0.29 0.28 0.30 0.35 0.41 0.53 0.65 0.78 0.89 0.98 1.05 1.18 1.35 1.47 1.55 1.66
1.25 1.35 1.34 1.30 1.34 1.40 1.44 1.54 1.63 1.63 1.55 1.42 1.22 1.08 0.98 0.81 0.80 0.76 0.75 0.58 0.37 0.29 0.27 0.26 0.24 0.25 0.28 0.36 0.45 0.54 0.65 0.82 0.96 1.05 1.17 1.28 1.38 1.47
1.15 1.17 1.16 1.19 1.23 1.19 1.26 1.38 1.54 1.65 1.52 1.46 1.37 1.30 1.21 1.08 0.91 0.70 0.55 0.42 0.38 0.33 0.28 0.26 0.25 0.25 0.24 0.25 0.30 0.39 0.48 0.64 0.79 0.88 1.00 1.14 1.27 1.36
1.16 1.07 1.00 1.05 1.11 1.14 1.23 1.26 1.32 1.50 1.50 1.50 1.50 1.49 1.35 1.15 1.03 0.85 0.64 0.51 0.48 0.45 0.34 0.28 0.25 0.26 0.24 0.23 0.28 0.32 0.42 0.51 0.65 0.75 0.81 0.85 0.97 1.16
1.10 1.02 0.95 0.94 0.96 1.03 1.14 1.21 1.21 1.29 1.40 1.44 1.48 1.51 1.45 1.24 1.03 0.89 0.74 0.71 0.67 0.53 0.37 0.29 0.25 0.25 0.26 0.24 0.29 0.37 0.50 0.53 0.55 0.63 0.71 0.78 0.82 0.89
0.83 0.78 0.83 0.93 0.97 0.92 0.91 0.95 1.02 1.12 1.19 1.26 1.37 1.45 1.42 1.34 1.10 0.97 0.91 0.81 0.74 0.56 0.45 0.35 0.28 0.23 0.23 0.21 0.21 0.32 0.45 0.54 0.60 0.63 0.68 0.74 0.80 0.84
0.65 0.51 0.51 0.69 0.84 0.85 0.79 0.78 0.79 0.86 0.94 1.05 1.17 1.29 1.32 1.29 1.12 0.93 0.87 0.89 0.83 0.73 0.65 0.55 0.44 0.38 0.37 0.35 0.29 0.28 0.31 0.39 0.51 0.65 0.79 0.91 0.99 1.00
0.50 0.44 0.43 0.48 0.53 0.56 0.61 0.64 0.67 0.70 0.79 0.93 1.07 1.15 1.14 1.12 1.12 1.08 0.98 0.95 0.99 0.95 0.93 0.92 0.75 0.70 0.69 0.67 0.52 0.31 0.21 0.27 0.39 0.50 0.73 0.98 1.23 1.34
0.41 0.41 0.35 0.32 0.34 0.31 0.32 0.35 0.39 0.46 0.56 0.72 0.91 1.01 1.08 1.02 1.09 1.13 1.09 1.15 1.21 1.22 1.16 1.23 1.03 0.86 0.80 0.73 0.62 0.42 0.28 0.23 0.31 0.42 0.51 0.71 0.98 1.29
0.35 0.34 0.32 0.34 0.34 0.31 0.26 0.25 0.23 0.25 0.32 0.41 0.61 0.83 0.96 1.06 1.03 1.07 1.08 1.11 1.12 1.03 0.96 1.13 1.14 1.10 0.98 0.74 0.61 0.51 0.40 0.32 0.32 0.41 0.42 0.45 0.55 0.76
0.35 0.33 0.32 0.32 0.31 0.29 0.29 0.26 0.24 0.24 0.25 0.30 0.41 0.62 0.80 0.87 0.97 1.02 1.01 0.93 0.87 0.67 0.51 0.68 0.87 0.97 1.10 1.02 0.76 0.65 0.52 0.39 0.36 0.39 0.40 0.41 0.43 0.46
0.51 0.46 0.39 0.35 0.32 0.24 0.25 0.27 0.24 0.22 0.22 0.23 0.26 0.39 0.55 0.66 0.70 0.72 0.78 0.76 0.67 0.57 0.37 0.32 0.39 0.53 0.71 0.79 0.73 0.70 0.71 0.60 0.42 0.38 0.41 0.44 0.49 0.47
0.66 0.60 0.50 0.40 0.31 0.26 0.25 0.26 0.25 0.25 0.27 0.29 0.29 0.34 0.47 0.60 0.60 0.57 0.59 0.61 0.55 0.45 0.36 0.31 0.26 0.25 0.32 0.45 0.55 0.54 0.61 0.71 0.69 0.55 0.44 0.45 0.54 0.62
0.82 0.76 0.66 0.51 0.38 0.31 0.29 0.27 0.26 0.25 0.28 0.32 0.35 0.35 0.39 0.49 0.58 0.54 0.52 0.50 0.49 0.42 0.36 0.34 0.34 0.28 0.24 0.25 0.30 0.32 0.37 0.47 0.62 0.80 0.86 0.81 0.70 0.68
0.93 0.94 0.77 0.61 0.51 0.39 0.36 0.36 0.31 0.27 0.30 0.31 0.32 0.33 0.33 0.38 0.51 0.57 0.57 0.52 0.47 0.40 0.31 0.25 0.27 0.32 0.28 0.23 0.21 0.20 0.23 0.35 0.51 0.71 0.81 0.88 0.95 0.95
0.88 0.94 0.84 0.71 0.62 0.51 0.44 0.42 0.38 0.34 0.36 0.34 0.33 0.35 0.36 0.39 0.45 0.50 0.53 0.53 0.48 0.38 0.29 0.23 0.21 0.24 0.29 0.27 0.22 0.23 0.26 0.37 0.48 0.67 0.83 0.90 0.92 0.99
0.93 0.96 0.95 0.81 0.70 0.61 0.54 0.53 0.51 0.48 0.44 0.42 0.41 0.42 0.40 0.40 0.42 0.43 0.44 0.45 0.42 0.35 0.25 0.23 0.23 0.24 0.21 0.18 0.20 0.21 0.22 0.27 0.31 0.42 0.61 0.76 0.88 0.97
0.91 0.92 0.95 0.90 0.79 0.69 0.61 0.61 0.60 0.56 0.50 0.48 0.46 0.44 0.41 0.37 0.38 0.39 0.39 0.40 0.38 0.33 0.28 0.21 0.19 0.21 0.21 0.18 0.12 0.10 0.12 0.16 0.20 0.27 0.37 0.44 0.52 0.64
0.81 0.83 0.85 0.85 0.78 0.73 0.66 0.63 0.60 0.59 0.55 0.52 0.49 0.47 0.42 0.36 0.33 0.35 0.35 0.35 0.36 0.33 0.29 0.25 0.18 0.14 0.14 0.14 0.12 0.06 0.05 0.06 0.11 0.18 0.27 0.29 0.33 0.42
0.72 0.75 0.76 0.74 0.71 0.70 0.68 0.66 0.64 0.61 0.56 0.55 0.50 0.46 0.42 0.34 0.31 0.32 0.30 0.29 0.29 0.29 0.28 0.25 0.20 0.13 0.09 0.11 0.12 0.11 0.06 0.04 0.04 0.07 0.11 0.15 0.19 0.20
0.66 0.67 0.67 0.64 0.62 0.63 0.64 0.67 0.64 0.56 0.51 0.51 0.48 0.41 0.37 0.31 0.28 0.28 0.27 0.30 0.29 0.27 0.25 0.22 0.18 0.18 0.13 0.10 0.12 0.14 0.13 0.07 0.04 0.04 0.06 0.09 0.12 0.16
0.58 0.57 0.54 0.53 0.53 0.55 0.58 0.61 0.57 0.52 0.49 0.45 0.43 0.36 0.30 0.28 0.25 0.25 0.24 0.24 0.24 0.24 0.23 0.23 0.20 0.17 0.14 0.11 0.09 0.10 0.14 0.13 0.09 0.05 0.04 0.06 0.08 0.09
0.49 0.44 0.39 0.41 0.42 0.43 0.45 0.47 0.48 0.46 0.42 0.39 0.38 0.32 0.27 0.26 0.25 0.26 0.24 0.22 0.23 0.24 0.26 0.26 0.23 0.17 0.14 0.13 0.11 0.11 0.13 0.13 0.14 0.15 0.13 0.07 0.03 0.02